ELECTRON R/B

Last updated on Sat Oct 18 2025 00:02:08 GMT+0000 (Coordinated Universal Time)

1 65972U 25229B 25289.74404435 .02940838 70625-5 10507-2 0 9990 2 65972 41.9266 193.3565 0256487 248.7725 108.5556 15.79191384 321

Satellite not in orbit